Flag for Germany Weather past 2 weeks in Neustadt am Rübenberge, Lower Saxony, Germany

Now
46 °F

Cool.


Feels Like: 44 °F
Forecast: 38 / 62 °F
Wind: 6 mph from Southeast

Location: Wunstorf Airport


UV Index: 3 (Moderate)

Visibility: 3 mi


Pressure: 30.39 "Hg

Humidity: 57%

Dew point: 32 °F

Location of Neustadt am RübenbergeLocation

Historic Weather in Neustadt am Rübenberge

°F

Neustadt am Rübenberge temperature yesterday

Maximum temperature yesterday: 50 °F (at 4:20 PM)
Minimum temperature yesterday: 39 °F (at 1:20 AM)
Average temperature yesterday: 44 °F

Past Weeks' High & Low Weather Summary

 TemperatureHumidityPressure
High72 °F (Apr 2, 5:20 PM)100% (Apr 5, 6:20 AM)30.48 "Hg (Apr 5, 6:20 AM)
Low30 °F (Apr 16, 5:20 AM)36% (Apr 2, 5:20 PM)29.62 "Hg (Apr 3, 4:20 PM)
Average50 °F77%29.99 "Hg
* Reported Apr 1 8:20 PM — Apr 16 8:20 PM, Neustadt am Rübenberge, Weather by CustomWeather, © 2014

Note: Actual official high and low records may vary slightly from our data, if they occured in-between our weather recording intervals... More about our weather records

Advertising

Historic Weather Conditions — Data for Previous 24 hours

 ConditionsComfort  
Time TempWeatherWind HumidityBarometerVisibility
8:20 PM
Apr 16
48 °FCool.3 mph54%30.39 "Hg4 mi
7:20 PM54 °FScattered clouds.5 mph44%30.39 "HgN/A
6:20 PM55 °FPassing clouds.3 mph38%30.39 "HgN/A
5:20 PM54 °FScattered clouds.1 mph44%30.42 "HgN/A
4:20 PM55 °FScattered clouds.3 mph41%30.42 "HgN/A
3:20 PM54 °FScattered clouds.3 mph44%30.42 "HgN/A
2:20 PM54 °FScattered clouds.7 mph47%30.45 "HgN/A
1:20 PM54 °FPassing clouds.6 mph51%30.45 "HgN/A
12:20 PM52 °FPassing clouds.6 mph54%30.45 "HgN/A
11:20 AM50 °FPassing clouds.3 mph58%30.48 "HgN/A
10:20 AM46 °FPassing clouds.2 mph62%30.48 "HgN/A
9:20 AM41 °FPassing clouds.2 mph76%30.45 "HgN/A
8:20 AM36 °FFog.2 mph93%30.45 "HgN/A
7:20 AM30 °FFog.1 mph100%30.45 "HgN/A
6:20 AM30 °FFog.No wind93%30.42 "Hg5 mi
5:20 AM30 °FFog.1 mph100%30.42 "HgN/A
4:20 AM34 °FChilly.3 mph93%30.39 "Hg2 mi
3:20 AM36 °FChilly.5 mph93%30.39 "Hg2 mi
2:20 AM34 °FChilly.2 mph100%30.39 "Hg3 mi
12:20 AM37 °FChilly.7 mph93%30.36 "Hg3 mi
11:20 PM
Apr 15
41 °FQuite cool.7 mph81%30.33 "Hg3 mi
10:20 PM43 °FQuite cool.9 mph76%30.33 "Hg3 mi
9:20 PM45 °FQuite cool.8 mph71%30.30 "Hg3 mi
Weather by CustomWeather, © 2014

See weather overview